sat.trackr.live / text

‹ back to catalog

STARLINK-5661

NORAD 55343 · 2023-013N

PAYLOAD ACTIVE UNKNOWN

§ Identity

Operator
Country
US
Launch date
2023-01-26
Launch site
AFETR
Launch vehicle
Mass (kg)
RCS (m²)

Purposes: comms

External: N2YO · Heavens-Above · Gunter

§ Orbital elements

Epoch: 2026-05-24T23:14:55.415616Z

Period
94.27 min
Inclination
43.0049°
Eccentricity
0.0002837
Mean motion
15.27594830 rev/d
Perigee alt
481.1 km
Apogee alt
485.0 km
Semi-major
6,861.1 km
B*
-1.2593e-4
RAAN
232.2581°
Arg perigee
263.3779°
Mean anomaly
96.6750°
Rev number
18,334

§ Raw data

STARLINK-56611 55343U 23013N   26144.96869694 -.00003728  00000+0 -12593-3 0  99972 55343  43.0049 232.2581 0002837 263.3779  96.6750 15.27594830183348

JSON: /api/v1/satellites/55343 · /tle

For live sub-satellite position, see the globe view (requires WebGL).

§ Visibility from observer

Set your observer location to see the next 7 days of passes ≥ 10°. The values pass through the URL so the page stays shareable.

No JS? Fill the form by hand. The geolocation button needs JavaScript.